Temp
12 12 13 13 13 13 13 13 14 14 14 15 15 15 15 15 16 15 15 15 15 15 15 15 16 16 15 15 15 16 16 17 17 17 16 15 15 15 15 15 15 15 14 13 13
12 12 12 13 13 13 14 14 14 14 14 15 15 15 15 15 15 16 15 15 15 15 15 15 15 16 16 16 16 15 17 17 17 16 16 15 15 15 15 15 15 15 15 15 14
12 12 12 13 13 13 13 14 14 14 15 15 15 15 15 15 15 15 16 15 15 15 15 15 15 15 16 15 15 16 17 17 17 16 16 16 14 14 14 14 14 15 15 15 14
12 12 12 12 13 13 13 14 14 15 15 15 15 15 15 15 14 15 15 15 15 15 15 15 15 15 15 16 16 16 17 17 17 16 16 16 16 15 14 15 15 15 15 14 14
11 12 12 12 13 13 13 13 14 14 14 15 15 15 15 15 15 15 15 15 15 15 15 15 15 15 15 16 16 16 17 17 17 16 17 16 16 15 15 14 15 15 15 15 14
11 11 12 12 12 13 13 13 14 14 14 15 15 15 15 15 15 15 14 14 14 15 15 15 15 15 15 15 16 16 16 17 17 17 18 18 16 17 16 16 16 15 15 15 14
11 11 11 12 12 12 12 13 13 14 14 14 14 15 15 15 15 15 14 14 14 14 15 15 15 15 14 15 15 16 16 17 17 18 17 17 16 18 17 17 16 16 15 15 14
10 11 11 11 12 12 12 13 13 13 13 14 14 14 15 15 15 15 14 14 14 14 14 15 15 15 15 15 15 16 17 18 18 17 17 17 19 17 17 17 17 16 16 15 15
9 10 10 11 11 12 12 12 13 13 13 13 14 14 15 15 15 15 15 14 14 14 14 14 14 14 14 15 16 17 17 18 18 17 16 17 18 17 17 17 16 16 16 15 15
9 9 10 10 11 11 11 12 12 13 13 13 13 13 14 15 15 15 15 15 14 14 13 14 14 14 15 16 17 18 18 18 17 17 17 17 18 18 17 17 16 15 16 16 15
8 8 9 9 10 10 11 11 11 12 13 13 13 14 14 15 15 15 15 15 14 13 14 13 14 15 16 16 16 16 16 17 17 17 17 18 18 18 18 17 17 17 17 16 16
7 8 8 9 9 10 10 10 11 11 12 13 13 14 14 14 14 14 15 14 14 14 14 14 14 15 15 15 15 16 16 17 17 17 17 18 18 18 18 18 17 17 15 17 16
6 7 8 8 9 9 9 9 10 10 11 13 13 14 14 14 14 14 15 14 14 14 15 14 16 15 14 15 15 16 16 17 17 17 16 17 17 18 18 18 18 18 17 17 17
5 6 7 7 8 8 8 8 9 9 10 12 13 13 14 14 14 15 13 14 14 14 15 15 15 14 14 15 15 16 16 16 16 17 17 18 19 19 18 18 18 18 18 18 18
5 5 6 7 7 8 8 8 8 8 12 13 12 13 14 14 14 14 14 13 14 14 15 15 14 14 14 15 15 15 16 15 16 16 17 18 18 19 18 18 19 18 18 18 18
5 5 5 6 6 7 7 7 7 8 12 12 11 12 13 14 14 13 14 14 14 14 14 15 15 14 15 15 15 15 15 15 16 17 18 18 18 19 19 19 18 18 18 18 18
4 5 5 6 6 6 6 6 7 10 11 12 12 12 12 13 13 13 13 14 14 14 14 14 14 14 14 15 15 14 15 17 18 19 19 18 18 18 18 18 18 18 18 18 18
4 5 5 5 6 6 6 5 8 10 10 10 10 11 12 13 13 13 14 14 14 15 15 15 16 15 15 14 16 15 16 17 18 19 20 16 18 18 17 17 17 18 18 18 18
4 5 5 5 6 6 6 6 8 9 9 9 11 11 13 12 13 13 14 14 15 14 15 16 16 15 15 15 15 16 15 16 17 18 18 19 19 17 18 17 17 17 18 18 17
4 4 5 5 6 6 5 6 8 7 7 9 11 11 13 13 13 13 14 14 15 15 15 15 16 15 15 14 15 15 16 16 17 18 18 19 18 18 18 18 17 16 17 17 17
4 4 4 5 5 5 5 6 7 7 7 8 9 10 11 11 12 13 14 13 13 14 14 15 15 16 15 15 16 15 15 16 17 17 19 19 19 18 17 17 16 17 17 17 16
4 3 4 5 5 4 5 5 6 6 7 7 7 8 9 10 11 12 13 13 13 13 14 14 15 15 15 16 15 16 16 16 17 17 17 17 18 17 17 17 17 17 17 17 16
3 4 4 4 4 4 5 5 5 6 6 7 8 8 9 9 10 11 12 12 12 13 13 13 14 15 16 15 15 15 15 15 16 16 17 18 18 17 17 17 17 17 17 16 16
3 3 3 4 4 4 4 5 5 5 5 6 7 8 8 9 10 10 12 11 12 12 13 13 14 14 17 16 17 15 16 15 15 17 17 17 17 15 17 17 17 17 17 16 15
2 2 3 3 3 3 4 5 5 5 5 6 6 7 8 9 10 10 11 11 11 12 12 12 13 14 15 14 16 16 16 16 15 16 17 18 17 15 15 16 16 16 16 16 15
2 3 3 3 4 4 4 4 5 6 5 7 6 8 8 9 10 11 11 11 12 11 11 12 13 12 14 14 15 15 16 15 15 15 15 16 14 14 15 15 15 15 15 15 15
2 2 3 2 3 4 4 5 4 5 6 6 7 7 8 8 9 9 9 10 11 11 11 12 12 12 15 14 14 14 13 15 13 13 14 16 14 14 15 15 15 15 15 15 14
Height
3198 3198 3198 3198 3199 3199 3199 3199 3199 3199 3200 3200 3200 3200 3200 3199 3200 3202 3204 3206 3207 3207 3207 3207 3205 3205 3205 3205 3204 3204 3206 3204 3203 3203 3204 3202 3202 3200 3199 3197 3196 3195 3194 3194 3192
3197 3196 3196 3196 3197 3197 3197 3198 3198 3198 3198 3199 3199 3199 3199 3198 3198 3199 3201 3203 3205 3206 3206 3207 3207 3206 3205 3205 3205 3204 3205 3205 3204 3204 3204 3202 3202 3200 3200 3199 3199 3198 3197 3195 3194
3195 3195 3195 3195 3195 3195 3195 3196 3196 3197 3197 3197 3197 3197 3197 3196 3197 3196 3197 3200 3202 3204 3205 3206 3207 3208 3207 3206 3206 3206 3206 3205 3204 3204 3203 3203 3200 3200 3201 3201 3201 3200 3198 3197 3196
3193 3193 3193 3192 3192 3193 3193 3194 3193 3194 3195 3196 3196 3196 3196 3195 3200 3194 3194 3197 3199 3202 3204 3205 3206 3207 3208 3207 3207 3205 3206 3205 3204 3203 3201 3201 3201 3199 3199 3202 3200 3199 3198 3197 3197
3189 3189 3190 3191 3190 3190 3190 3191 3191 3192 3193 3193 3194 3194 3195 3195 3194 3193 3193 3195 3197 3199 3202 3204 3205 3207 3208 3208 3205 3205 3205 3204 3203 3201 3199 3199 3198 3198 3198 3198 3197 3198 3198 3197 3197
3185 3185 3185 3186 3187 3187 3187 3188 3188 3189 3190 3190 3191 3192 3193 3193 3192 3192 3192 3193 3195 3198 3199 3202 3204 3204 3206 3206 3206 3204 3203 3203 3202 3199 3196 3196 3198 3196 3196 3195 3195 3196 3196 3197 3197
3180 3180 3180 3181 3182 3183 3183 3184 3185 3186 3186 3187 3188 3189 3190 3191 3190 3190 3190 3192 3194 3195 3197 3198 3200 3203 3203 3205 3203 3203 3202 3201 3199 3198 3196 3195 3197 3194 3194 3194 3193 3194 3194 3195 3195
3175 3175 3175 3175 3176 3177 3178 3179 3180 3181 3182 3183 3184 3186 3186 3187 3188 3188 3188 3190 3192 3193 3194 3196 3195 3198 3200 3201 3202 3203 3203 3200 3196 3196 3195 3196 3193 3194 3194 3192 3192 3192 3192 3192 3194
3169 3169 3169 3169 3170 3171 3172 3174 3176 3177 3178 3179 3181 3182 3183 3184 3185 3186 3186 3188 3189 3190 3191 3192 3194 3195 3197 3200 3201 3199 3198 3195 3195 3195 3194 3194 3193 3191 3191 3191 3190 3189 3190 3191 3191
3164 3164 3163 3163 3164 3165 3166 3168 3170 3171 3173 3175 3176 3180 3179 3180 3181 3183 3183 3185 3187 3187 3189 3190 3192 3193 3194 3196 3194 3193 3193 3194 3195 3195 3193 3193 3191 3191 3188 3188 3187 3187 3187 3187 3189
3158 3159 3158 3157 3158 3159 3161 3163 3167 3167 3166 3170 3171 3173 3174 3175 3177 3178 3180 3181 3183 3185 3186 3187 3190 3189 3190 3191 3192 3191 3193 3193 3192 3193 3192 3190 3188 3188 3187 3185 3183 3183 3182 3184 3185
3153 3153 3153 3152 3152 3153 3155 3155 3157 3159 3159 3161 3164 3166 3169 3170 3172 3174 3175 3178 3179 3180 3184 3186 3183 3186 3187 3189 3190 3191 3191 3189 3189 3189 3189 3187 3185 3185 3184 3182 3182 3181 3179 3179 3181
3148 3148 3148 3147 3148 3148 3149 3150 3151 3152 3153 3155 3157 3160 3163 3165 3167 3169 3171 3173 3175 3178 3179 3179 3181 3182 3184 3185 3186 3186 3186 3186 3186 3186 3186 3186 3183 3180 3181 3179 3177 3176 3176 3175 3176
3142 3142 3143 3142 3146 3143 3144 3146 3147 3149 3150 3150 3149 3152 3155 3158 3158 3164 3165 3170 3172 3174 3176 3176 3177 3178 3180 3180 3183 3182 3183 3184 3183 3184 3181 3181 3177 3176 3177 3177 3176 3174 3173 3172 3172
3136 3136 3138 3139 3138 3139 3141 3142 3145 3147 3145 3144 3142 3142 3146 3151 3157 3156 3160 3163 3165 3169 3172 3171 3172 3173 3175 3175 3179 3179 3180 3181 3180 3179 3179 3177 3177 3173 3174 3174 3173 3172 3171 3170 3169
3131 3130 3132 3134 3134 3135 3136 3140 3143 3148 3139 3138 3137 3136 3139 3142 3146 3149 3153 3156 3162 3165 3165 3167 3167 3169 3169 3171 3174 3177 3177 3178 3177 3175 3170 3170 3170 3168 3168 3169 3170 3170 3169 3168 3165
3125 3125 3127 3128 3129 3130 3133 3137 3143 3137 3135 3134 3134 3135 3137 3138 3140 3143 3146 3148 3152 3158 3158 3162 3163 3165 3166 3169 3170 3173 3174 3171 3168 3165 3163 3163 3167 3166 3166 3168 3168 3167 3166 3163 3162
3121 3121 3122 3122 3124 3127 3131 3136 3134 3129 3132 3131 3131 3132 3133 3134 3135 3137 3141 3142 3146 3150 3152 3155 3156 3158 3160 3162 3165 3167 3168 3165 3160 3156 3154 3160 3161 3163 3163 3164 3164 3163 3161 3160 3159
3117 3117 3117 3119 3121 3123 3128 3128 3126 3128 3129 3129 3130 3130 3129 3131 3132 3132 3134 3136 3139 3143 3148 3148 3150 3153 3155 3158 3162 3163 3164 3164 3161 3159 3156 3151 3154 3159 3159 3161 3159 3158 3157 3157 3157
3114 3113 3114 3115 3117 3120 3122 3121 3125 3125 3126 3127 3128 3129 3128 3128 3129 3129 3130 3131 3134 3138 3143 3145 3147 3148 3151 3153 3156 3157 3159 3161 3160 3155 3153 3149 3153 3154 3155 3157 3157 3153 3153 3154 3154
3111 3110 3111 3112 3114 3116 3117 3120 3123 3123 3124 3127 3128 3128 3128 3128 3127 3126 3126 3128 3130 3133 3138 3142 3145 3145 3148 3148 3149 3153 3154 3156 3153 3152 3146 3146 3147 3148 3152 3154 3152 3151 3151 3151 3152
3108 3110 3109 3110 3113 3113 3116 3117 3118 3120 3123 3123 3124 3125 3127 3127 3126 3126 3125 3126 3125 3129 3132 3137 3140 3141 3142 3143 3145 3145 3147 3150 3150 3150 3151 3150 3147 3147 3150 3150 3149 3149 3149 3150 3150
3105 3106 3107 3108 3112 3112 3113 3112 3114 3117 3119 3120 3122 3123 3125 3126 3127 3125 3125 3124 3124 3126 3129 3132 3134 3136 3137 3140 3141 3143 3145 3146 3147 3147 3144 3145 3142 3143 3147 3147 3146 3147 3147 3147 3148
3105 3107 3106 3106 3107 3109 3111 3112 3113 3112 3113 3115 3117 3119 3121 3123 3125 3124 3125 3124 3123 3123 3124 3126 3129 3130 3126 3129 3131 3135 3139 3141 3143 3142 3140 3141 3142 3141 3143 3144 3144 3144 3144 3144 3146
3103 3105 3104 3108 3109 3109 3109 3109 3110 3111 3110 3111 3112 3113 3117 3120 3122 3122 3123 3124 3123 3122 3122 3124 3126 3126 3126 3127 3127 3129 3131 3135 3137 3138 3136 3134 3136 3139 3141 3140 3141 3141 3142 3142 3143
3100 3102 3103 3104 3105 3107 3107 3107 3107 3108 3108 3109 3109 3111 3112 3114 3118 3120 3121 3122 3122 3122 3122 3121 3123 3122 3123 3124 3125 3127 3128 3131 3133 3135 3137 3137 3136 3138 3139 3139 3139 3139 3140 3140 3141
3098 3099 3101 3103 3104 3106 3107 3106 3106 3105 3105 3105 3107 3106 3107 3110 3115 3117 3117 3118 3119 3120 3120 3120 3121 3121 3118 3122 3123 3126 3127 3128 3129 3130 3134 3135 3135 3135 3136 3138 3138 3138 3138 3139 3139
Wind_Speed
5 5 5 5 6 5 6 7 7 6 6 6 3 4 7 9 18 22 18 14 8 4 1 3 4 5 6 8 6 5 3 4 6 5 5 2 4 9 11 11 13 12 10 5 7
9 8 7 7 8 8 7 7 6 7 7 8 5 3 4 7 7 18 23 20 13 9 6 2 2 5 6 5 4 4 2 5 4 3 3 4 2 5 5 8 9 10 10 8 9
12 12 11 10 10 10 10 10 10 9 9 9 6 3 2 4 5 11 22 23 18 14 11 6 3 2 3 6 4 4 3 7 6 6 5 5 6 5 3 3 0 6 7 7 7
18 15 15 14 13 13 13 13 12 12 11 10 8 5 2 3 2 6 14 25 22 18 14 11 7 5 4 5 6 6 6 8 7 8 6 6 5 7 6 3 4 2 4 5 6
23 22 20 18 16 16 15 15 15 14 13 12 10 8 4 5 7 6 8 20 23 20 16 14 11 8 7 7 9 10 9 7 11 13 12 11 10 8 9 9 8 8 5 2 2
25 26 25 23 21 19 19 18 17 16 15 14 12 11 7 6 8 6 6 13 18 21 20 17 15 13 12 11 10 11 12 12 13 14 17 11 9 10 4 7 9 8 9 6 4
26 27 28 28 26 24 21 21 19 18 17 16 14 13 11 9 9 8 9 10 13 15 18 21 18 17 11 11 13 13 15 12 11 12 8 4 9 4 4 8 9 10 9 11 9
26 27 28 29 29 27 26 24 22 20 19 18 16 15 15 12 9 9 14 13 12 13 17 21 23 21 20 15 14 12 13 14 7 9 7 3 7 2 8 11 7 9 13 11 11
29 28 27 29 29 29 29 27 25 23 21 20 18 16 17 16 12 11 13 18 17 15 19 20 23 16 15 18 18 17 18 13 11 9 6 7 11 12 11 14 13 12 10 12 13
29 30 29 28 28 28 28 28 27 26 24 22 22 18 18 19 17 13 11 18 20 19 19 20 19 18 19 20 23 19 16 15 14 8 7 12 16 13 16 16 14 15 16 12 14
26 28 29 28 27 27 26 26 25 26 28 25 19 23 14 21 20 18 14 17 21 20 19 15 18 21 20 20 22 18 16 20 19 14 12 18 17 14 14 16 14 16 20 19 13
23 24 26 27 26 25 25 23 23 26 28 30 28 27 22 24 23 22 19 18 20 21 17 21 24 19 17 16 18 21 22 26 21 18 14 16 16 17 13 13 14 16 18 13 16
23 22 23 24 25 23 23 22 20 21 25 30 31 30 27 28 25 23 24 21 18 20 22 24 20 18 19 17 19 22 23 22 23 17 16 18 21 17 12 10 12 14 16 19 12
23 22 21 21 22 22 21 19 16 15 12 21 27 32 34 29 33 28 26 24 19 20 21 22 20 19 17 18 19 22 19 18 22 22 25 15 20 12 10 9 6 5 7 9 11
19 20 20 19 19 20 19 15 11 9 6 10 19 30 32 34 22 29 32 27 26 20 19 20 18 21 24 25 17 19 14 13 14 19 23 22 17 20 12 12 9 10 11 13 15
19 17 18 19 17 20 18 11 11 8 13 8 10 16 26 32 34 23 29 32 28 26 23 21 16 16 17 19 20 13 13 13 13 18 23 26 19 22 16 8 9 10 12 17 11
18 15 16 16 17 18 16 14 10 16 11 8 9 10 12 18 24 24 24 28 31 29 29 22 23 17 15 14 16 16 14 16 13 14 17 12 13 21 16 13 15 13 14 17 12
17 14 15 14 17 16 17 20 16 11 22 4 5 9 11 11 17 24 27 29 29 31 25 28 25 23 20 24 21 20 19 19 13 12 16 11 13 19 11 14 12 15 14 14 10
14 15 15 13 14 16 21 26 18 18 6 13 11 11 11 10 11 16 27 29 30 32 30 20 24 13 17 22 23 20 18 19 17 15 13 14 9 13 15 13 16 16 17 15 8
12 13 13 11 13 18 24 28 18 13 8 4 10 7 9 8 9 13 18 21 28 27 29 22 16 16 14 14 21 23 15 16 19 16 10 13 11 16 13 9 8 8 9 5 5
10 9 9 9 14 20 21 22 23 14 12 7 6 7 8 4 5 9 12 8 19 19 27 24 18 15 13 18 18 21 24 20 16 9 11 9 11 4 5 8 8 7 3 4 5
8 4 8 8 12 14 18 18 18 15 17 14 12 9 8 8 6 6 10 8 12 19 23 25 20 24 17 15 15 16 19 27 23 18 21 18 19 5 8 12 12 10 9 7 6
8 8 8 8 6 10 13 15 15 15 16 16 20 14 11 7 5 5 5 7 9 11 14 20 24 23 24 17 18 19 18 18 17 18 16 13 13 10 11 11 12 13 10 8 6
5 2 6 9 8 7 6 8 13 12 17 20 22 19 17 15 10 6 5 4 4 4 12 17 15 23 26 26 22 26 23 20 19 19 21 19 9 5 13 12 13 15 15 11 7
7 7 9 3 8 9 8 8 10 12 11 11 17 23 20 21 15 15 10 7 4 2 3 10 10 16 20 14 12 17 22 20 22 22 15 16 10 8 7 8 11 13 13 11 8
9 11 13 10 7 11 9 8 11 10 14 10 15 14 19 23 18 13 14 11 7 5 3 2 4 5 9 11 15 17 17 18 16 14 13 8 9 5 5 5 6 5 7 7 8
10 12 11 8 6 6 7 8 6 7 5 10 12 13 16 20 18 12 9 11 10 8 6 6 3 5 10 7 11 13 10 14 14 13 13 13 11 7 3 3 4 7 10 11 10
Wind_Direction
270 263 256 239 241 229 217 207 200 211 229 232 228 271 269 254 230 225 220 221 211 224 154 87 50 22 41 73 80 54 62 43 36 27 33 56 80 63 60 53 56 64 90 110 98
271 264 260 253 251 246 239 233 215 223 234 243 224 250 271 276 251 229 220 215 213 219 233 225 52 359 356 12 43 40 24 11 351 353 347 262 266 30 48 54 46 56 69 76 89
266 265 259 256 253 253 249 243 229 225 233 242 237 236 283 290 289 250 216 215 214 216 232 238 274 349 335 312 297 307 335 338 339 322 314 284 255 273 345 348 88 35 63 66 85
265 262 260 256 253 251 249 247 238 230 231 239 232 220 250 295 250 284 217 210 217 219 225 246 260 297 318 284 283 294 302 323 318 318 288 273 272 273 255 293 268 305 15 80 90
267 265 262 260 254 251 249 246 243 239 235 237 236 219 214 268 257 291 219 207 214 225 229 239 258 268 265 266 277 279 288 300 310 297 294 274 281 263 270 252 299 261 297 336 95
268 266 265 261 259 256 252 248 243 241 240 238 232 228 210 242 258 266 237 212 215 222 237 241 248 256 257 264 268 278 289 292 298 283 300 296 263 293 284 288 292 286 254 277 260
269 267 265 264 259 256 255 253 249 243 240 239 236 227 212 218 235 251 234 219 218 224 230 245 242 245 255 262 258 275 295 286 281 279 292 313 254 334 269 282 283 272 282 255 264
267 267 267 264 262 259 254 252 251 248 244 242 238 237 222 213 223 224 229 221 226 233 235 235 246 236 245 253 264 269 271 264 250 279 295 311 302 262 298 292 289 296 272 267 265
265 266 264 263 264 261 259 253 249 249 244 243 242 240 236 215 214 224 230 224 231 231 230 233 236 242 241 247 255 253 261 246 268 279 261 279 289 299 311 322 308 275 275 267 251
260 263 264 262 259 259 260 258 253 248 247 242 241 242 237 220 215 219 228 224 223 234 228 230 233 243 248 235 242 248 241 251 258 272 257 267 287 295 294 294 284 259 272 263 249
263 261 262 264 262 256 254 258 257 256 243 238 237 232 227 224 221 217 221 222 223 225 230 236 232 236 241 244 248 261 253 261 261 266 270 277 281 290 290 285 271 263 271 270 261
269 263 260 261 262 260 254 252 252 250 250 242 239 238 232 232 226 226 220 215 219 226 229 228 236 238 243 235 240 251 257 258 263 265 258 270 279 282 289 281 272 263 266 276 261
268 267 262 261 260 259 254 253 249 248 252 244 241 236 236 230 227 224 225 220 223 230 228 233 242 236 239 242 244 248 254 261 259 254 265 268 279 276 275 285 282 270 271 282 250
273 264 263 259 258 255 252 250 252 253 259 248 245 241 236 239 236 224 223 222 222 231 235 241 235 238 235 241 240 249 251 260 257 254 256 235 272 271 270 283 307 307 321 310 301
278 269 259 258 250 249 247 241 238 236 255 229 223 235 235 235 238 234 232 224 224 233 222 235 232 235 241 241 241 245 247 253 257 250 250 250 262 268 260 275 279 307 318 317 319
282 278 254 253 248 242 236 223 204 203 233 231 212 220 225 228 230 226 230 223 232 228 238 237 235 235 241 238 228 225 241 256 259 247 237 245 244 265 265 269 280 297 323 323 322
283 279 254 246 240 231 222 192 195 227 228 217 208 204 216 224 226 222 221 217 213 212 226 232 236 237 219 215 215 218 232 242 225 222 242 232 230 262 280 281 289 278 302 307 313
286 276 253 245 239 223 204 188 221 230 224 236 212 230 237 226 226 224 218 220 219 218 228 224 231 231 224 223 220 223 229 245 254 250 237 195 248 263 269 290 278 275 274 299 308
289 276 253 256 236 216 199 205 221 230 248 239 252 249 233 233 215 216 218 223 221 213 225 230 232 233 224 226 218 223 229 239 264 264 277 265 235 279 269 289 289 275 270 279 298
288 275 259 252 227 213 208 219 223 231 240 287 249 236 236 219 230 217 213 223 222 222 215 225 239 220 211 194 216 221 236 222 231 262 251 254 251 270 278 275 320 290 278 267 296
291 278 252 242 223 214 218 227 229 237 224 233 244 241 238 248 256 229 214 213 205 213 211 216 220 204 203 205 214 217 227 234 263 258 278 263 262 251 260 268 294 324 291 324 315
289 264 247 234 216 215 226 231 231 233 239 237 256 257 251 281 286 247 218 211 210 207 210 214 226 233 218 218 222 224 227 223 228 222 242 273 277 226 245 269 275 285 290 281 291
269 250 242 215 203 240 238 240 246 239 235 237 242 245 242 255 283 244 205 198 192 199 202 203 221 228 234 227 234 226 224 223 231 248 256 261 246 211 232 240 245 260 274 270 263
235 197 239 214 206 197 230 248 242 258 244 237 242 243 242 253 248 246 224 212 136 145 208 213 216 225 233 230 228 216 223 223 223 228 233 227 223 203 219 229 241 251 254 257 268
211 221 202 204 236 240 252 249 262 258 257 243 243 238 236 243 243 245 237 232 252 243 70 191 223 231 240 255 228 224 223 218 217 226 249 254 193 219 231 243 260 271 276 266 252
219 213 218 211 228 235 251 284 291 272 245 241 241 236 238 230 230 246 241 240 232 265 218 230 234 230 227 237 225 218 220 213 209 218 219 204 172 174 119 85 40 319 317 300 267
227 215 222 230 227 230 259 258 301 289 249 240 248 256 236 223 213 231 224 231 237 223 240 235 227 219 207 190 180 183 186 194 195 196 195 201 196 190 195 332 326 327 325 319 295